Regional Weather Roundup
Issued by NWS Goodland, KS

Home | Current Version | Previous Version | Graphics & Text | Print | Product List | Glossary On
Versions: 1 2 3 4 5 6 7 8 9 10 11 12 13 14 15 16 17 18 19 20 21 22 23 24 25 26 27 28 29 30 31 32 33 34 35 36 37 38 39 40 41 42 43 44 45 46 47 48 49 50
000
ASUS43 KGLD 212259
RWRGLD

GOODLAND FORECAST AREA HOURLY WEATHER ROUNDUP
NATIONAL WEATHER SERVICE GOODLAND KS
500 PM MDT SAT OCT 21 2017

...OFFICIAL OBSERVATIONS...

CITY           SKY/WX    TMP DP  RH WIND       PRES   REMARKS
GOODLAND KS    PTCLDY    59  18  20 NW17G25   30.00R
HILL CITY KS   CLEAR     62  35  36 N7        29.96R
IMPERIAL NEB   CLEAR     60  17  18 NW13      29.98R
MCCOOK NEB     CLEAR     62  22  21 NW22      29.96R
AKRON CO       SUNNY     53   6  15 NW20G31   30.04R
BURLINGTON CO  SUNNY     58  13  17 NW18      30.03R
LIMON CO       SUNNY     52   2  13 NW20G26   30.06R
$$

...UNOFFICIAL OBSERVATIONS...

CITY           SKY/WX    TMP DP  RH WIND       PRES   REMARKS
LENORA KS        N/A     60  32  34 NW8         N/A
NORTON KS      CLEAR     59  27  29 N8        29.94R
SHARON SPRINGS   N/A     60  20  21 NW17G26     N/A
TRENTON NEB      N/A     60  32  34 NW8         N/A
KIT CARSON CO    N/A     59  11  15 MISG        N/A
YUMA CO        FAIR      54  12  19 NW23G30   30.02R
$$




USA.gov is the U.S. government's official web portal to all federal, state and local government web resources and services.